Terminal Aerodrome Forecast
Issued by NWS Binghamton, NY

Home | Current Version | Previous Version | Text Only | Print | Product List | Glossary On
Versions: 1 2 3 4 5 6 7 8 9 10 11 12 13 14 15 16 17
000
FTUS41 KBGM 022334
TAFSYR
TAF
KSYR 022334Z 0300/0324 19006KT P6SM BKN250
     FM031500 26012KT P6SM SCT080 PROB30 0319/0324 5SM TSRA
      OVC035CB=

USA.gov is the U.S. government's official web portal to all federal, state and local government web resources and services.